Viking Sky — LAYU7 — position and weather

sailwx.info

Track history (hours):
 
Tides and Currents Weather Stations Pressure Air Temp Water Temp Dewpoint Dewpoint Depression Visibility Wind Speed Wind Dir Waves Ship Positions

Viking Sky

Last reported at 2020-Jan-18 01:00 UTC. Time now 2020-Jan-19 15:28 UTC.
Position N 25°25' W 080°02'.

Length 228 m; draft 6.7 m.

Type: Passenger vessel. MMSI: 259186000.

Date/timePositionNaut miles runAvg speedWind from/ knotsBaromVisibWave heightAir tempDewpointWater temp
2020-Jan-18 01:00N 25°25' W 080°02'1211.8
2020-Jan-18 00:00N 25°37' W 080°02'12 3.1
2020-Jan-17 19:57N 25°46' W 080°11'0 0.0
2020-Jan-17 18:27N 25°46' W 080°11'0 0.0
2020-Jan-17 17:27N 25°46' W 080°11'0 0.0
2020-Jan-17 16:27N 25°46' W 080°11'0 0.0
2020-Jan-17 14:57N 25°46' W 080°11'0 0.0
2020-Jan-17 11:27N 25°46' W 080°11'7 2.4
2020-Jan-17 08:31N 25°46' W 080°03'1812.2
2020-Jan-17 07:00N 25°29' W 079°55'485 9.4
2020-Jan-15 03:26N 20°38' W 086°56'9 9.8
2020-Jan-15 02:29N 20°29' W 086°59'0 0.0
2020-Jan-15 01:29N 20°29' W 086°59'0 0.0
2020-Jan-14 23:59N 20°29' W 086°59'0 0.0
2020-Jan-14 21:29N 20°29' W 086°59'0 0.0
2020-Jan-14 20:59N 20°29' W 086°59'0 0.0
2020-Jan-14 19:29N 20°29' W 086°59'0 0.0
2020-Jan-14 18:29N 20°29' W 086°59'0 0.0
2020-Jan-14 17:59N 20°29' W 086°59'0 0.0
2020-Jan-14 17:29N 20°29' W 086°59'0 0.0
2020-Jan-14 16:59N 20°29' W 086°59'0 0.0
2020-Jan-14 14:56N 20°29' W 086°59'0 0.0
2020-Jan-14 14:29N 20°29' W 086°59'0 0.0
2020-Jan-14 13:29N 20°29' W 086°59'  
2020-Jan-11 03:30N 25°29' W 080°02'713.0
2020-Jan-11 03:00N 25°36' W 080°02'612.5
2020-Jan-11 02:30N 25°42' W 080°03'8 7.8
2020-Jan-11 01:31N 25°46' W 080°10'1 0.4
2020-Jan-10 23:55N 25°46' W 080°11'0 0.0
2020-Jan-10 23:25N 25°46' W 080°11'0 0.0
2020-Jan-10 17:25N 25°46' W 080°11'0 0.0
2020-Jan-10 16:55N 25°46' W 080°11'0 0.0
2020-Jan-10 15:19N 25°46' W 080°11'0 0.0
2020-Jan-10 12:25N 25°46' W 080°11'0 0.0
2020-Jan-10 10:25N 25°46' W 080°11'9 4.8
2020-Jan-10 08:30N 25°42' W 080°02'917.1
2020-Jan-10 08:00N 25°33' W 080°00'917.9
2020-Jan-10 07:30N 25°24' W 079°59'917.2
2020-Jan-10 07:00N 25°16' W 080°02'47612.0
2020-Jan-08 15:30N 20°34' W 086°58'611.8
2020-Jan-08 15:01N 20°28' W 086°60'1 1.2
2020-Jan-08 14:00N 20°29' W 086°59'3 2.6
2020-Jan-08 13:00N 20°28' W 087°01'  
Track history (hours):
 
Tides and Currents Weather Stations Pressure Air Temp Water Temp Dewpoint Dewpoint Depression Visibility Wind Speed Wind Dir Waves Ship Positions

Viking Sky

Last reported at 2020-Jan-18 01:00 UTC. Time now 2020-Jan-19 15:28 UTC.
Position N 25°25' W 080°02'.

Length 228 m; draft 6.7 m.

Type: Passenger vessel. MMSI: 259186000.

Date/timePositionNaut miles runAvg speedWind from/ knotsBaromVisibWave heightAir tempDewpointWater temp
2020-Jan-18 01:00N 25°25' W 080°02'1211.8
2020-Jan-18 00:00N 25°37' W 080°02'12 3.1
2020-Jan-17 19:57N 25°46' W 080°11'0 0.0
2020-Jan-17 18:27N 25°46' W 080°11'0 0.0
2020-Jan-17 17:27N 25°46' W 080°11'0 0.0
2020-Jan-17 16:27N 25°46' W 080°11'0 0.0
2020-Jan-17 14:57N 25°46' W 080°11'0 0.0
2020-Jan-17 11:27N 25°46' W 080°11'7 2.4
2020-Jan-17 08:31N 25°46' W 080°03'1812.2
2020-Jan-17 07:00N 25°29' W 079°55'485 9.4
2020-Jan-15 03:26N 20°38' W 086°56'9 9.8
2020-Jan-15 02:29N 20°29' W 086°59'0 0.0
2020-Jan-15 01:29N 20°29' W 086°59'0 0.0
2020-Jan-14 23:59N 20°29' W 086°59'0 0.0
2020-Jan-14 21:29N 20°29' W 086°59'0 0.0
2020-Jan-14 20:59N 20°29' W 086°59'0 0.0
2020-Jan-14 19:29N 20°29' W 086°59'0 0.0
2020-Jan-14 18:29N 20°29' W 086°59'0 0.0
2020-Jan-14 17:59N 20°29' W 086°59'0 0.0
2020-Jan-14 17:29N 20°29' W 086°59'0 0.0
2020-Jan-14 16:59N 20°29' W 086°59'0 0.0
2020-Jan-14 14:56N 20°29' W 086°59'0 0.0
2020-Jan-14 14:29N 20°29' W 086°59'0 0.0
2020-Jan-14 13:29N 20°29' W 086°59'  
2020-Jan-11 03:30N 25°29' W 080°02'713.0
2020-Jan-11 03:00N 25°36' W 080°02'612.5
2020-Jan-11 02:30N 25°42' W 080°03'8 7.8
2020-Jan-11 01:31N 25°46' W 080°10'1 0.4
2020-Jan-10 23:55N 25°46' W 080°11'0 0.0
2020-Jan-10 23:25N 25°46' W 080°11'0 0.0
2020-Jan-10 17:25N 25°46' W 080°11'0 0.0
2020-Jan-10 16:55N 25°46' W 080°11'0 0.0
2020-Jan-10 15:19N 25°46' W 080°11'0 0.0
2020-Jan-10 12:25N 25°46' W 080°11'0 0.0
2020-Jan-10 10:25N 25°46' W 080°11'9 4.8
2020-Jan-10 08:30N 25°42' W 080°02'917.1
2020-Jan-10 08:00N 25°33' W 080°00'917.9
2020-Jan-10 07:30N 25°24' W 079°59'917.2
2020-Jan-10 07:00N 25°16' W 080°02'47612.0
2020-Jan-08 15:30N 20°34' W 086°58'611.8
2020-Jan-08 15:01N 20°28' W 086°60'1 1.2
2020-Jan-08 14:00N 20°29' W 086°59'3 2.6
2020-Jan-08 13:00N 20°28' W 087°01'  

Dump ship's entire track history